Location: Tamazert
(32.6352°N, 5.2072°W)
Time: 16:24:04
(UTC+00:00)

Cosmos 1271 Rocket - Pass Details

Date: 22 May 2022
Orbit: 495 x 539 km, 81.2° (Epoch: 28 June)

Event Time Altitude Azimuth Distance (km) Brightness Sun altitude
Rises 03:26:08 0° 354° (N) 2,615 6.8 -20.4°
Reaches altitude 10° 03:28:15 10° 356° (N) 1,733 5.8 -20.1°
Maximum altitude 03:32:03 77° 81° (E) 533 2.7 -19.5°
Enters shadow 03:33:59 28° 164° (SSE) 996 3.9 -19.2°
